ISS (ZARYA) 1 25544U 98067A 26166.18985271 .00007715 00000+0 14683-3 0 9996 2 25544 51.6338 309.9786 0004835 187.9159 172.1754 15.49238068571444 POISK 1 36086U 09060A 26166.18985271 .00007715 00000+0 14683-3 0 9994 2 36086 51.6338 309.9786 0004835 187.9159 172.1754 15.49238068571098 CSS (TIANHE) 1 48274U 21035A 26166.12139454 .00019018 00000+0 22553-3 0 9994 2 48274 41.4695 334.5729 0007575 60.5099 299.6495 15.60729034292848 ISS (NAUKA) 1 49044U 21066A 26166.18985271 .00007715 00000+0 14683-3 0 9992 2 49044 51.6338 309.9786 0004835 187.9159 172.1754 15.49238068571142 FREGAT DEB 1 49271U 11037PF 26151.14915702 .00018955 00000+0 30994-1 0 9992 2 49271 51.6227 53.0895 0914379 245.3590 104.9405 12.41880577222933 CSS (WENTIAN) 1 53239U 22085A 26165.92942686 .00021893 00000+0 25898-3 0 9992 2 53239 41.4695 335.7415 0007630 58.6853 301.4732 15.60722625288231 CSS (MENGTIAN) 1 54216U 22143A 26166.12139454 .00019018 00000+0 22553-3 0 9998 2 54216 41.4695 334.5729 0007575 60.5099 299.6495 15.60729034293459 HRC MONOBLOCK CAMERA 1 66052U 98067XR 26166.04266942 .00075816 00000+0 52686-3 0 9999 2 66052 51.6249 290.1869 0001306 281.0457 79.0395 15.73724779 37667 SZ-21 MODULE 1 66515U 25246C 26164.73115900 .00045764 00000+0 28446-3 0 9999 2 66515 41.4731 328.8460 0006751 328.3391 31.7047 15.76117488 33190 SOYUZ-MS 28 1 66664U 25275A 26166.18985271 .00007715 00000+0 14683-3 0 9995 2 66664 51.6338 309.9786 0004835 187.9159 172.1754 15.49238068571240 DUPLEX 1 66906U 98067XS 26166.06968065 .00033163 00000+0 37028-3 0 9996 2 66906 51.6286 300.1635 0003456 195.9577 164.1308 15.62452927 30320 ISS OBJECT XY 1 66912U 98067XY 26166.03689969 .00437878 89788-4 99383-3 0 9991 2 66912 51.6174 285.5254 0010486 315.1880 44.8281 15.96855577 30509 KNACKSAT-2 1 67683U 98067XZ 26165.65979306 .00044887 00000+0 55154-3 0 9998 2 67683 51.6308 307.1872 0009407 204.1419 155.9135 15.59771864 19882 CORAL 1 67684U 98067YA 26165.09002005 .00192136 00000+0 12083-2 0 9994 2 67684 51.6234 304.0900 0008933 237.2595 122.7544 15.75549221 19877 GXIBA-1 1 67685U 98067YB 26165.66462707 .00052183 00000+0 60209-3 0 9998 2 67685 51.6300 306.4652 0010633 202.3440 157.7092 15.61334881 19891 UITMSAT-2 1 67686U 98067YC 26165.68160311 .00072355 00000+0 73487-3 0 9992 2 67686 51.6274 305.0774 0006050 194.6662 165.4159 15.64510659 19914 LEOPARD 1 67687U 98067YD 26165.68955615 .00049795 00000+0 58894-3 0 9999 2 67687 51.6316 306.6468 0006638 184.8877 175.2053 15.60751694 19813 HMU-SAT2 1 67688U 98067YE 26165.66873790 .00062747 00000+0 67767-3 0 9992 2 67688 51.6296 305.7514 0006258 190.5533 169.5331 15.63005499 19828 CREW DRAGON 12 1 67796U 26031A 26166.18985271 .00007715 00000+0 14683-3 0 9993 2 67796 51.6338 309.9786 0004835 187.9159 172.1754 15.49238068571191 PROGRESS-MS 33 1 68319U 26058A 26166.18985271 .00007715 00000+0 14683-3 0 9994 2 68319 51.6338 309.9786 0004835 187.9159 172.1754 15.49238068571294 CYGNUS NG-24 1 68689U 26079A 26165.80282118 .00008449 00000+0 16005-3 0 9990 2 68689 51.6336 311.8940 0004856 186.3522 173.7405 15.49231655571505 PROGRESS-MS 34 1 68837U 26093A 26165.80282118 .00008449 00000+0 16005-3 0 9991 2 68837 51.6336 311.8940 0004856 186.3522 173.7405 15.49231655571500 TIANZHOU-10 1 69049U 26102A 26165.92942686 .00021893 00000+0 25898-3 0 9992 2 69049 41.4695 335.7415 0007630 58.6853 301.4732 15.60722625 5559 DRAGON CRS-34 1 69103U 26107A 26166.18985271 .00007715 00000+0 14683-3 0 9991 2 69103 51.6338 309.9786 0004835 187.9159 172.1754 15.49238068571443 SHENZHOU-23 (SZ-23) 1 69180U 26113A 26165.92942686 .00021893 00000+0 25898-3 0 9990 2 69180 41.4695 335.7415 0007630 58.6853 301.4732 15.60722625293116